[Iaude] MPEC W78: 2023 VM15 [a=1.42,e=0.37,i=25.7,H=23.6]
    mpec at marsden.cfa.harvard.edu 
    mpec at marsden.cfa.harvard.edu
       
    Wed Nov 22 06:48:47 EST 2023
    
    
  
M.P.E.C. 2023-W78                             Issued 2023 November 22, 11:47 UT
     The Minor Planet Electronic Circulars contain information on unusual
         minor planets, routine data on comets and natural satellites,
         and occasional editorial announcements.  They are published
    on behalf of Division F of the International Astronomical Union by the
          Minor Planet Center, Smithsonian Astrophysical Observatory,
                          Cambridge, MA 02138, U.S.A.
			  
             Prepared using the Tamkin Foundation Computer Network
                              MPC at CFA.HARVARD.EDU
            URL https://www.minorplanetcenter.net/    ISSN 1523-6714
                                   2023 VM15                                    
Observations:
     K23V15M* C2023 11 13.34732003 15 04.288+26 05 12.66         22.16GVEW078V00
     K23V15M  C2023 11 13.35282403 15 02.732+26 05 27.82         22.07GVEW078V00
     K23V15M  C2023 11 13.35832703 15 01.130+26 05 43.30         22.27GVEW078V00
     K23V15M  C2023 11 13.36382803 14 59.550+26 05 58.16         22.00GVEW078V00
     K23V15M mC2023 11 15.29246103 06 19.451+27 31 27.59         21.91GVEW078V00
     K23V15M  C2023 11 15.29384403 06 19.098+27 31 31.30         22.16GVEW078V00
     K23V15M  C2023 11 15.29445803 06 18.914+27 31 32.66         22.02GVEW078V00
     K23V15M mC2023 11 15.29521603 06 18.702+27 31 34.50         22.35GVEW078V00
     K23V15M mC2023 11 15.29797103 06 17.957+27 31 41.92               VEW078V00
     K23V15M mC2023 11 15.30072503 06 17.215+27 31 48.36         21.61GVEW078V00
     K23V15M  C2023 11 15.30209503 06 16.837+27 31 52.14         22.51GVEW078V00
     K23V15M  C2023 11 15.30270603 06 16.657+27 31 53.36         21.88GVEW078V00
     K23V15M  C2023 11 15.30759803 06 15.329+27 32 05.68         22.26GVEW078V00
     K23V15M  C2023 11 15.30821003 06 15.156+27 32 07.33         22.14GVEW078V00
     K23V15M  C2023 11 15.31310203 06 13.849+27 32 19.39         21.95GVEW078V00
     K23V15M  C2023 11 15.31371603 06 13.662+27 32 20.72               VEW078V00
     K23V15M DC2023 11 22.39302 02 38 42.09 +31 31 56.8          22.7 GVEW078695
     K23V15M DC2023 11 22.40401 02 38 39.81 +31 32 14.1          23.1 GVEW078695
     K23V15M DC2023 11 22.41499 02 38 37.50 +31 32 31.0          22.8 GVEW078695
Observer details:
695 Kitt Peak.  Observer J. V. Scotti.  2.3-m f/9 reflector + CCD.
V00 Kitt Peak-Bok.  Observer R. A. Mastaler.  Measurers M. J. Brucker, C. E.
    Woodward, D. Fay, J. B. Fazekas, D. C. Fuls, A. R. Gibbs, H. Groeller, J.
    K. Hogan, R. A. Kowalski, S. M. Larson, C. Lejoly, G. J. Leonard, R. A.
    Mastaler, R. S. McMillan, D. Rankin, R. L. Seaman, A. Serrano, F. C.
    Shelly, K. W. Wierzchos.  2.25-m reflector + 4x4K mosaic CCD.
Orbital elements:
2023 VM15                                                Earth MOID = 0.1401 AU
Epoch 2023 Sept. 13.0 TT = JDT 2460200.5                Veres                   
M  21.01159              (2000.0)            P               Q                  
n   0.57981354     Peri.  265.35220     +0.60323190     +0.73135734             
a   1.4243295      Node    47.15071     -0.44273792     +0.63887311             
e   0.3671633      Incl.   25.71978     -0.66339612     +0.23865789             
P   1.70           H   23.68          G   0.15           U   9                  
Residuals in seconds of arc
231113 V00  0.1-  0.2+    231115 V00  0.2-  0.2-    231115 V00  0.3+  0.1-
231113 V00  0.2+  0.0     231115 V00  0.1-  0.3+    231115 V00  0.0   0.3-
231113 V00  0.1-  0.1+    231115 V00  0.1+  0.1-    231122 695  0.2+  0.1-
231113 V00  0.1-  0.3-    231115 V00  0.0   0.2+    231122 695  0.2+  0.2+
231115 V00  0.3-  0.2-    231115 V00  0.2-  0.1-    231122 695  0.3-  0.1+
231115 V00  0.1+  0.1+    231115 V00  0.0   0.0
231115 V00  0.1-  0.1-    231115 V00  0.1-  0.1+
Ephemeris:
2023 VM15                a,e,i = 1.42, 0.37, 26                  q = 0.9014
Date    TT    R. A. (2000) Decl.     Delta      r    Elong.  Phase     V
2023 10 23    05 00 32.1 +01 27 29   0.2647  1.1864   131.2    39.1    22.7
...
2023 11 07    03 46 11.4 +20 15 03   0.2879  1.2716   165.1    11.5    22.2
...
2023 11 15    03 07 36.9 +27 19 06   0.3307  1.3167   170.6     7.0    22.4
...
2023 11 21    02 43 33.5 +30 53 02   0.3747  1.3501   162.5    12.7    23.0
2023 11 22    02 40 03.5 +31 21 22   0.3828  1.3556   161.0    13.7    23.0
2023 11 23    02 36 42.5 +31 47 53   0.3912  1.3611   159.6    14.7    23.1
...
2023 11 29    02 19 45.7 +33 54 34   0.4456  1.3938   151.3    19.9    23.6
...
2023 12 07    02 04 57.4 +35 41 40   0.5274  1.4364   141.6    25.2    24.2
...
2023 12 22    01 56 04.1 +37 31 05   0.7011  1.5127   126.9    31.3    25.1
M. P. C. Staff               (C) Copyright 2023 MPC           M.P.E.C. 2023-W78
    
    
More information about the Iaude
mailing list